Weather History for Cleveland Cuyahoga, OH

Change the Weather History Date:

Saturday, December 8, 2012

  Actual Average Record
Temperature  
Mean Temperature 44 °F -  
Max Temperature 48 °F 40 °F 51 °F (1999)
Min Temperature 39 °F 31 °F 6 °F (2005)
Degree Days  
Heating Degree Days 20    
Moisture  
Dew Point 42 °F    
Average Humidity 92    
Maximum Humidity 100    
Minimum Humidity 81    
Precipitation  
Precipitation 0.00 in - - ()
Sea Level Pressure  
Sea Level Pressure 29.93 in    
Wind  
Wind Speed 8 mph (NW)    
Max Wind Speed 14 mph    
Max Gust Speed -    
Visibility 4 miles    
Events Fog , Rain    
Averages and records for this station are not official NWS values.
T = Trace of Precipitation, MM = Missing Value Source: NWS Daily Summary

Daily Weather History Graph

Daily Weather History Graph

Search for Another Location

Airport:

Trip Planner

Search our weather history database for the weather conditions in past years. The results will help you decide how hot, cold, wet, or windy it might be!

Date:

Astronomy

Dec. 08, 2012 Rise Set
Actual Time 7:40 AM EST 4:55 PM EST
Civil Twilight 7:09 AM EST 5:27 PM EST
Nautical Twilight 6:34 AM EST 6:01 PM EST
Astronomical Twilight 6:00 AM EST 6:35 PM EST
Moon 2:00 AM EST (12/8) 1:27 PM EST (12/8)
Length of Visible Light 10h 17m
Length of Day
9h 15m
Waning Crescent, 28% of the Moon is Illuminated
Dec 8
Waning Crescent
Dec 13
New
Dec 20
First Quarter
Dec 28
Full
Jan 4
Last Quarter

Hourly Weather History & Observations

Time (EST) Temp. Windchill Dew Point Humidity Pressure Visibility Wind Dir Wind Speed Gust Speed Precip Events Conditions
6:45 AM 46.4 °F - 44.6 °F 93% 29.79 in 1.5 mi Calm Calm - N/A   Overcast
7:45 AM 48.2 °F - 48.2 °F 100% 29.80 in 2.0 mi WSW 11.5 mph - N/A   Overcast
8:45 AM 48.2 °F - 46.4 °F 93% 29.82 in 1.5 mi WSW 11.5 mph - N/A   Overcast
9:45 AM 48.2 °F - 46.4 °F 93% 29.83 in 2.0 mi West 11.5 mph - N/A   Overcast
10:45 AM 48.2 °F - 46.4 °F 93% 29.86 in 1.5 mi West 9.2 mph - N/A   Overcast
11:45 AM 48.2 °F - 46.4 °F 93% 29.86 in 1.0 mi West 11.5 mph - N/A Rain Light Rain
12:10 PM 46.4 °F 41.5 °F 46.4 °F 100% 29.84 in 0.2 mi West 10.4 mph - N/A Fog Light Drizzle
12:45 PM 46.4 °F 40.7 °F 46.4 °F 100% 29.85 in 1.0 mi West 12.7 mph - N/A   Light Drizzle
1:45 PM 46.4 °F 40.4 °F 46.4 °F 100% 29.85 in 2.0 mi West 13.8 mph - N/A   Overcast
2:45 PM 44.6 °F 38.4 °F 44.6 °F 100% 29.89 in 0.5 mi NW 12.7 mph - N/A   Light Drizzle
3:35 PM 42.8 °F 38.0 °F 42.8 °F 100% 29.93 in 0.8 mi NNW 8.1 mph - N/A   Light Drizzle
3:45 PM 42.8 °F 38.0 °F 41.0 °F 93% 29.94 in 1.0 mi NNW 8.1 mph - N/A   Light Drizzle
4:45 PM 41.0 °F 34.3 °F 39.2 °F 93% 29.98 in 6.0 mi North 11.5 mph - N/A   Overcast
5:45 PM 41.0 °F 35.2 °F 37.4 °F 87% 30.01 in 10.0 mi NE 9.2 mph - N/A   Overcast
6:45 PM 41.0 °F 35.2 °F 35.6 °F 81% 30.04 in 10.0 mi NNE 9.2 mph - N/A   Overcast
7:45 PM 41.0 °F 35.2 °F 35.6 °F 81% 30.07 in 10.0 mi NE 9.2 mph - N/A   Overcast
8:45 PM 41.0 °F 36.4 °F 35.6 °F 81% 30.09 in 10.0 mi NE 6.9 mph - N/A   Overcast
9:45 PM 41.0 °F 36.4 °F 35.6 °F 81% 30.11 in 10.0 mi NNE 6.9 mph - N/A   Overcast
10:45 PM 39.2 °F 33.0 °F 33.8 °F 81% 30.12 in 10.0 mi NE 9.2 mph - N/A   Overcast